SCP
0 0 0 0 0 0 0 0 -0 -0 0 -0 -0 0 0 0 0 0 -0 -0 -0 -0 -0 -0 -0 0 -0 -0 0 -0 0 0 -0 0 0 0 -0 -0 -0 0 0 -0 -0 0
0 0 0 0 0 0 0 0 -0 -0 -0 -0 -0 0 0 0 0 0 -0 -0 -0 -0 -0 -0 -0 -0 -0 0 -0 -0 -0 0 0 -0 -0 -0 -0 -0 -0 0 -0 -0 0 0
-0 0 0 0 0 0 0 0 -0 -0 -0 -0 -0 0 0 0 0 0 0 -0 -0 -0 -0 -0 -0 -0 0 0 -0 0 0 0 -0 -0 -0 -0 0 0 0 0 -0 0 0 -0
-0 0 0 0 0 0 0 0 0 -0 -0 -0 -0 0 0 0 0 0 0 0 0 -0 -0 0 0 0 0 0 -0 0 -0 -0 0 -0 -0 -0 -0 0 -0 0 -0 0 0 0
0 0 -0 -0 0 0 0 0 0 -0 -0 -0 -0 0 0 0 0 0 0 0 0 -0 0 -0 0 0 0 0 -0 -0 -0 -0 -0 -0 -0 -0 0 -0 0 0 0 0 0 -0
0 -0 0 0 0 0 0 0 0 0 0 -0 0 0 0 0 0 0 0 0 -0 -0 -0 -0 0 0 -0 0 -0 -0 -0 -0 -0 -0 -0 -0 -0 -0 0 0 0 0 0 -0
-0 -0 0 0 0 0 0 0 0 0 0 0 0 0 0 0 0 -0 0 0 -0 -0 -0 0 0 -0 -0 -0 -0 -0 -0 -0 -0 0 0 -0 -0 0 0 0 0 0 0 -0
0 0 -0 0 -0 0 0 0 0 0 0 0 0 0 0 0 0 0 0 0 0 0 0 0 -0 -0 -0 -0 -0 -0 0 -0 0 0 0 0 -0 0 0 0 0 0 0 0
0 0 -0 -0 0 0 0 0 0 0 0 0 0 0 0 0 0 0 0 0 0 0 0 0 0 -0 -0 0 -0 -0 -0 -0 0 0 0 0 0 0 0 0 0 0 0 0
0 0 0 0 0 0 0 0 0 0 0 0 0 0 0 0 0 0 0 0 0 0 0 0 0 0 -0 -0 -0 -0 -0 -0 0 0 0 0 0 0 0 0 0 0 0 0
0 0 0 0 0 0 0 0 0 0 0 0 0 0 0 0 0 0 0 0 0 0 0 0 0 0 0 0 -0 -0 -0 0 0 0 0 0 0 0 0 0 0 0 0 0
0 0 0 0 0 0 0 0 0 0 0 0 0 0 0 0 0 0 0 0 0 0 0 0 0 0 0 0 0 -0 -0 0 0 0 0 0 0 0 0 0 0 0 0 0
0 0 -0 -0 -0 0 0 0 0 0 0 0 0 0 0 0 0 0 0 0 0 0 0 0 0 -0 0 0 0 -0 -0 0 0 0 0 0 0 0 0 0 0 0 0 0
0 -0 -0 -0 0 0 0 0 0 0 0 0 0 0 0 0 0 0 0 0 0 0 0 0 0 0 0 0 0 0 0 -0 0 0 0 0 0 0 0 0 0 0 0 0
-0 -0 -0 -0 -0 0 0 0 0 0 0 0 0 0 0 0 0 0 0 0 0 0 0 0 0 0 0 0 0 0 0 0 0 0 0 0 0 0 0 0 0 0 0 0
-0 -0 -0 -0 0 0 -0 -0 0 0 0 0 0 0 0 0 0 0 0 0 0 0 0 0 0 0 0 0 0 0 0 0 0 0 0 0 0 0 0 0 -0 0 0 0
-0 -0 -0 -0 0 0 0 -0 -0 -0 0 0 0 0 0 0 0 0 0 0 0 0 0 0 0 0 0 0 0 0 0 0 0 0 0 0 0 0 0 0 0 0 0 0
-0 -0 -0 -0 -0 0 -0 -0 -0 0 0 0 0 0 0 0 0 0 0 0 0 0 0 0 0 0 0 0 0 0 0 -0 0 0 0 0 0 0 0 0 0 0 0 0
-0 -0 -0 0 -0 -0 0 0 -0 0 0 0 0 0 0 0 0 0 0 0 0 0 0 0 0 0 0 0 0 0 0 0 0 0 0 0 0 0 0 0 0 0 0 0
-0 -0 -0 -0 -0 0 0 0 -0 0 0 0 0 0 0 0 0 0 0 0 0 0 0 0 0 0 0 0 0 0 0 0 0 0 0 0 0 0 0 0 0 0 0 0
-0 0 -0 -0 -0 -0 -0 -0 -0 0 0 0 0 0 0 0 0 0 0 0 0 0 0 0 0 0 0 0 0 0 0 0 0 0 0 0 0 0 0 0 0 0 0 0
0 0 -0 -0 -0 -0 -0 -0 -0 -0 0 0 0 0 0 0 0 0 0 0 0 0 0 0 0 0 0 0 0 0 0 0 0 0 0 0 0 0 0 0 0 0 0 0
0 0 0 0 -0 -0 -0 -0 -0 -0 -0 -0 0 0 0 0 0 0 0 0 0 0 0 0 0 0 0 0 0 0 0 0 0 0 0 0 0 0 0 0 0 0 0 0
0 0 0 0 0 0 0 0 -0 -0 -0 -0 -0 -0 -0 -0 -0 -0 0 0 0 0 0 0 0 0 0 0 0 0 0 0 0 0 0 0 0 0 0 0 0 0 0 0
0 0 0 0 0 0 0 -0 -0 -0 -0 -0 -0 -0 -0 -0 -0 -0 -0 0 0 0 0 0 0 0 0 0 0 0 0 0 0 0 0 0 0 0 0 0 0 0 0 0
0 0 0 0 0 0 0 -0 -0 -0 -0 -0 0 -0 -0 -0 -0 -0 -0 -0 0 0 0 0 0 0 0 0 0 0 0 0 0 0 0 0 0 0 0 0 0 0 0 0
0 0 0 0 0 0 0 0 0 -0 0 0 0 0 0 -0 -0 -0 0 0 0 0 0 0 0 0 0 0 0 0 0 0 0 0 0 0 0 0 0 0 0 0 0 0
Wind_Speed_500mb
18 27 28 27 32 25 22 18 12 10 41 36 27 37 33 20 37 35 58 63 62 63 61 61 59 55 49 47 48 45 37 28 25 20 11 10 26 19 23 29 16 10 7 5
24 24 32 37 39 35 31 31 19 27 52 24 21 38 1 20 37 34 50 59 63 64 62 63 60 56 49 52 47 41 40 29 24 18 17 21 20 22 31 23 17 12 7 4
12 17 23 20 36 39 28 13 22 27 22 15 23 16 6 13 27 32 46 64 66 65 64 60 58 53 51 52 43 39 38 29 14 24 22 22 26 26 26 17 16 12 7 3
10 10 12 12 7 28 37 26 34 29 23 29 25 29 8 19 29 34 40 61 65 63 60 56 51 51 50 46 39 35 36 26 19 25 22 23 22 23 25 19 16 14 9 2
6 7 21 26 11 13 3 14 24 12 28 15 13 20 9 15 9 23 40 57 61 60 59 57 53 53 52 47 41 35 33 22 23 26 20 30 28 21 23 21 19 17 10 6
5 8 6 3 10 27 15 9 10 8 15 8 12 12 8 3 21 8 33 52 63 63 62 59 57 56 53 49 44 41 32 24 21 25 24 21 19 20 20 21 19 17 13 9
18 10 11 5 16 28 14 3 24 18 18 13 7 5 7 5 10 19 40 58 66 66 65 62 61 56 54 52 47 40 32 27 24 24 22 22 17 15 17 20 21 19 15 9
8 8 12 9 34 10 10 23 20 31 10 25 33 26 11 9 23 22 51 70 69 64 66 63 61 58 55 54 39 35 35 31 26 25 23 19 14 15 16 18 21 22 19 16
4 3 14 48 40 35 9 5 35 27 16 39 48 40 37 7 13 26 63 74 66 63 68 66 64 59 52 45 40 37 36 31 27 23 20 16 8 17 17 16 14 20 19 17
5 6 17 41 34 42 43 50 43 39 30 57 61 48 33 26 12 23 62 72 65 65 70 68 65 58 45 42 42 38 39 32 30 27 22 13 9 15 11 9 11 17 21 19
5 10 26 36 45 62 51 40 51 47 23 70 71 75 53 34 29 13 47 64 67 68 71 67 65 56 47 43 44 39 42 36 33 31 23 16 9 16 9 5 3 3 14 15
5 24 15 20 52 48 50 38 35 48 53 75 70 66 57 51 54 40 40 37 52 68 70 62 62 53 46 44 43 36 47 43 38 34 27 20 9 21 15 8 4 6 7 7
8 22 21 28 36 25 37 41 55 49 61 70 64 54 52 56 57 60 44 37 38 44 59 60 59 51 45 42 41 36 38 45 42 40 33 26 18 24 23 15 9 6 8 10
32 20 23 33 14 22 35 41 53 46 55 59 50 49 42 45 49 63 58 48 34 24 34 43 50 47 45 42 40 38 33 37 41 40 35 30 23 21 23 21 13 11 19 15
19 28 27 28 34 45 49 48 55 59 46 45 38 37 38 42 46 47 45 48 45 40 42 40 40 44 45 47 40 42 43 37 43 45 39 36 29 25 26 25 19 18 21 21
16 29 35 42 38 41 49 55 63 58 53 47 35 27 26 30 35 36 35 35 43 54 47 35 32 31 41 44 50 46 44 45 39 46 49 45 39 33 31 32 29 25 24 23
27 25 28 45 38 42 48 46 58 57 48 37 31 25 17 16 25 32 34 31 31 37 38 40 35 23 17 33 46 53 54 49 51 47 51 53 46 40 35 35 34 34 32 31
24 25 21 26 35 40 44 49 56 53 55 33 26 25 23 22 24 23 25 22 19 22 22 28 26 31 23 10 23 48 58 58 59 57 53 56 55 48 41 39 40 42 39 39
18 20 16 16 21 34 39 44 46 45 49 43 40 36 28 27 21 17 16 11 16 9 17 14 12 14 18 23 16 7 31 50 54 54 64 66 64 60 55 49 47 44 46 47
21 14 17 23 23 28 31 33 34 42 47 44 42 43 41 36 31 23 19 25 25 18 15 11 9 6 5 11 15 16 14 10 16 38 45 56 66 68 68 66 62 60 57 58
18 16 19 24 30 29 29 25 30 38 43 48 52 55 45 37 40 38 33 35 30 19 13 7 8 11 10 9 15 12 6 9 6 6 7 25 45 55 61 65 69 74 72 70
31 23 19 21 26 27 25 26 27 29 37 46 48 48 50 47 42 47 46 45 36 30 31 21 15 13 10 11 11 7 5 10 8 6 6 7 9 8 18 38 53 62 68 74
29 23 20 18 19 23 21 21 24 24 30 37 42 48 52 55 55 55 52 45 37 35 36 35 29 25 15 6 6 9 7 7 7 8 14 17 14 10 8 11 14 20 37 58
27 27 25 19 13 11 15 18 20 20 24 31 38 43 48 52 57 55 50 41 35 32 37 39 38 32 30 25 20 13 6 5 7 7 7 7 11 15 15 17 20 25 30 31
27 27 36 29 22 15 10 12 14 15 15 22 31 37 44 49 56 56 56 54 48 42 38 33 34 38 40 42 39 31 26 23 20 16 13 11 10 10 10 13 18 21 25 31
31 31 36 26 19 19 13 8 4 10 11 14 23 30 35 39 44 49 55 59 62 61 57 50 46 38 32 32 32 34 35 32 28 26 25 24 22 20 19 19 19 20 20 20
40 34 38 36 27 19 17 10 1 9 8 9 15 22 27 33 38 43 48 53 58 62 65 65 61 56 52 47 40 35 33 32 30 29 28 29 29 29 29 25 25 28 31 30
Wind_Direction_500mb
239 255 268 265 265 258 231 246 243 309 252 274 320 298 297 178 142 158 150 159 165 163 160 161 161 160 159 154 149 154 157 158 151 157 173 187 165 167 164 156 162 159 191 298
278 259 254 265 251 244 242 238 253 267 274 273 277 309 161 153 155 176 153 164 168 166 163 165 165 165 161 160 164 168 177 167 157 176 159 155 169 177 165 160 161 181 177 16
268 308 328 260 230 224 221 207 199 239 273 304 305 298 304 138 183 174 174 170 171 171 170 169 169 167 165 164 175 187 189 170 177 164 156 169 151 150 162 166 174 180 188 12
287 313 251 254 17 215 211 211 214 243 273 272 259 268 216 161 182 186 191 178 176 174 174 173 170 168 164 170 180 192 184 171 175 165 166 171 174 179 178 174 182 184 208 299
239 245 302 291 38 18 312 262 221 244 269 228 208 171 257 93 163 189 199 195 181 177 172 169 168 166 174 182 190 188 172 175 172 170 169 173 179 189 183 187 196 199 224 265
201 262 277 13 330 350 317 271 85 301 285 233 188 178 227 1 152 213 209 209 192 183 179 176 173 172 177 184 184 175 177 165 160 180 175 173 186 193 190 193 208 213 224 253
214 239 270 265 294 313 186 219 319 312 297 232 159 203 237 97 173 290 214 212 200 189 186 182 179 179 187 191 187 182 177 163 167 171 173 179 189 192 194 206 215 217 217 232
206 236 243 5 309 209 330 310 304 3 67 112 100 83 76 26 331 273 211 204 201 193 196 188 185 188 192 192 184 186 174 169 182 174 182 183 192 185 188 203 214 220 221 218
298 287 306 288 266 284 325 287 11 17 99 112 92 89 99 232 343 228 200 204 199 197 200 192 192 192 191 188 180 190 182 185 185 179 187 196 203 184 191 204 221 211 203 197
255 319 302 323 10 47 45 32 26 48 70 95 83 88 99 71 72 168 194 195 199 199 198 193 195 193 192 186 182 194 191 192 195 190 182 179 177 188 209 214 200 194 189 193
300 305 331 352 10 32 57 55 54 53 59 77 74 71 76 45 52 96 187 190 197 195 195 193 193 192 188 188 191 198 197 197 200 195 189 174 181 185 171 130 83 135 187 197
300 289 278 355 37 42 52 61 57 51 49 75 74 74 72 63 65 80 137 170 190 191 193 192 192 190 190 194 195 199 200 201 201 198 197 186 173 186 174 153 126 125 134 164
290 25 55 62 64 47 48 54 62 54 55 67 66 69 64 59 58 74 106 144 175 191 193 195 192 190 194 197 204 205 208 207 205 204 204 194 183 194 191 181 198 212 164 153
18 27 21 35 43 65 50 60 64 51 44 50 54 61 65 61 58 63 70 88 105 163 184 195 192 193 201 207 215 216 216 217 217 212 213 209 205 200 191 194 215 206 178 169
37 49 65 57 50 49 54 46 55 54 44 40 38 43 54 58 57 58 63 68 88 119 145 166 181 196 208 212 219 223 223 224 227 224 223 222 217 210 211 211 214 209 192 190
43 33 43 52 55 62 58 57 58 51 46 42 41 37 48 52 57 69 71 64 73 82 96 127 161 190 209 218 219 224 228 230 234 234 231 227 224 223 221 224 223 223 222 214
32 36 59 60 55 46 55 60 59 53 42 43 42 47 68 72 63 71 71 73 71 72 79 86 78 108 182 217 224 223 228 232 234 236 236 236 234 231 227 230 232 233 236 236
78 78 73 72 60 69 68 61 53 48 43 47 53 60 64 76 71 64 69 67 85 86 79 78 61 76 82 141 213 224 228 231 234 239 241 239 239 239 239 236 240 245 247 250
94 77 51 41 58 80 77 72 60 49 43 49 54 56 60 67 75 65 59 57 53 70 48 43 77 54 49 61 77 173 219 228 234 239 243 243 242 243 243 244 243 244 247 250
113 107 88 70 53 46 54 65 59 55 50 60 65 67 67 67 69 72 66 59 42 21 9 0 358 325 310 349 26 63 85 131 214 237 239 243 246 247 248 250 252 254 253 255
133 145 114 87 82 70 60 55 50 57 53 50 54 57 58 64 64 66 70 65 48 39 30 357 318 290 298 284 278 303 349 59 124 150 202 240 246 249 251 254 257 258 260 261
164 157 139 115 95 83 64 53 48 57 54 53 52 56 58 61 62 58 54 57 51 48 50 45 24 357 301 256 263 279 292 269 273 247 214 200 198 208 249 257 257 259 262 263
169 171 150 131 116 106 93 62 54 52 54 53 54 52 54 54 53 51 52 52 55 55 54 49 44 39 31 35 225 244 239 242 278 287 271 260 261 266 263 274 283 287 274 268
166 172 164 153 149 125 84 71 55 59 55 53 53 55 57 58 59 57 57 58 58 53 54 52 51 52 50 52 55 53 38 326 308 316 298 276 267 266 276 294 291 296 296 300
188 176 179 177 180 160 116 95 64 64 60 58 55 54 54 55 57 57 57 58 59 58 60 61 53 50 51 49 47 47 48 46 40 30 24 16 5 350 313 301 297 303 305 306
201 198 194 191 207 180 160 143 42 68 57 56 57 53 55 57 59 59 60 59 59 58 57 55 52 53 55 52 48 47 45 41 36 33 28 23 20 14 9 350 339 327 323 324
203 195 191 189 187 188 185 187 131 57 54 55 56 63 60 60 62 63 61 57 56 57 57 57 55 53 53 53 51 47 46 44 38 29 16 8 3 357 356 348 327 335 335 330
Wind_Speed_850mb
18 27 28 27 32 25 22 18 12 10 41 36 27 37 33 20 37 35 58 63 62 63 61 61 59 55 49 47 48 45 37 28 25 20 11 10 26 19 23 29 16 10 7 5
24 24 32 37 39 35 31 31 19 27 52 24 21 38 1 20 37 34 50 59 63 64 62 63 60 56 49 52 47 41 40 29 24 18 17 21 20 22 31 23 17 12 7 4
12 17 23 20 36 39 28 13 22 27 22 15 23 16 6 13 27 32 46 64 66 65 64 60 58 53 51 52 43 39 38 29 14 24 22 22 26 26 26 17 16 12 7 3
10 10 12 12 7 28 37 26 34 29 23 29 25 29 8 19 29 34 40 61 65 63 60 56 51 51 50 46 39 35 36 26 19 25 22 23 22 23 25 19 16 14 9 2
6 7 21 26 11 13 3 14 24 12 28 15 13 20 9 15 9 23 40 57 61 60 59 57 53 53 52 47 41 35 33 22 23 26 20 30 28 21 23 21 19 17 10 6
5 8 6 3 10 27 15 9 10 8 15 8 12 12 8 3 21 8 33 52 63 63 62 59 57 56 53 49 44 41 32 24 21 25 24 21 19 20 20 21 19 17 13 9
18 10 11 5 16 28 14 3 24 18 18 13 7 5 7 5 10 19 40 58 66 66 65 62 61 56 54 52 47 40 32 27 24 24 22 22 17 15 17 20 21 19 15 9
8 8 12 9 34 10 10 23 20 31 10 25 33 26 11 9 23 22 51 70 69 64 66 63 61 58 55 54 39 35 35 31 26 25 23 19 14 15 16 18 21 22 19 16
4 3 14 48 40 35 9 5 35 27 16 39 48 40 37 7 13 26 63 74 66 63 68 66 64 59 52 45 40 37 36 31 27 23 20 16 8 17 17 16 14 20 19 17
5 6 17 41 34 42 43 50 43 39 30 57 61 48 33 26 12 23 62 72 65 65 70 68 65 58 45 42 42 38 39 32 30 27 22 13 9 15 11 9 11 17 21 19
5 10 26 36 45 62 51 40 51 47 23 70 71 75 53 34 29 13 47 64 67 68 71 67 65 56 47 43 44 39 42 36 33 31 23 16 9 16 9 5 3 3 14 15
5 24 15 20 52 48 50 38 35 48 53 75 70 66 57 51 54 40 40 37 52 68 70 62 62 53 46 44 43 36 47 43 38 34 27 20 9 21 15 8 4 6 7 7
8 22 21 28 36 25 37 41 55 49 61 70 64 54 52 56 57 60 44 37 38 44 59 60 59 51 45 42 41 36 38 45 42 40 33 26 18 24 23 15 9 6 8 10
32 20 23 33 14 22 35 41 53 46 55 59 50 49 42 45 49 63 58 48 34 24 34 43 50 47 45 42 40 38 33 37 41 40 35 30 23 21 23 21 13 11 19 15
19 28 27 28 34 45 49 48 55 59 46 45 38 37 38 42 46 47 45 48 45 40 42 40 40 44 45 47 40 42 43 37 43 45 39 36 29 25 26 25 19 18 21 21
16 29 35 42 38 41 49 55 63 58 53 47 35 27 26 30 35 36 35 35 43 54 47 35 32 31 41 44 50 46 44 45 39 46 49 45 39 33 31 32 29 25 24 23
27 25 28 45 38 42 48 46 58 57 48 37 31 25 17 16 25 32 34 31 31 37 38 40 35 23 17 33 46 53 54 49 51 47 51 53 46 40 35 35 34 34 32 31
24 25 21 26 35 40 44 49 56 53 55 33 26 25 23 22 24 23 25 22 19 22 22 28 26 31 23 10 23 48 58 58 59 57 53 56 55 48 41 39 40 42 39 39
18 20 16 16 21 34 39 44 46 45 49 43 40 36 28 27 21 17 16 11 16 9 17 14 12 14 18 23 16 7 31 50 54 54 64 66 64 60 55 49 47 44 46 47
21 14 17 23 23 28 31 33 34 42 47 44 42 43 41 36 31 23 19 25 25 18 15 11 9 6 5 11 15 16 14 10 16 38 45 56 66 68 68 66 62 60 57 58
18 16 19 24 30 29 29 25 30 38 43 48 52 55 45 37 40 38 33 35 30 19 13 7 8 11 10 9 15 12 6 9 6 6 7 25 45 55 61 65 69 74 72 70
31 23 19 21 26 27 25 26 27 29 37 46 48 48 50 47 42 47 46 45 36 30 31 21 15 13 10 11 11 7 5 10 8 6 6 7 9 8 18 38 53 62 68 74
29 23 20 18 19 23 21 21 24 24 30 37 42 48 52 55 55 55 52 45 37 35 36 35 29 25 15 6 6 9 7 7 7 8 14 17 14 10 8 11 14 20 37 58
27 27 25 19 13 11 15 18 20 20 24 31 38 43 48 52 57 55 50 41 35 32 37 39 38 32 30 25 20 13 6 5 7 7 7 7 11 15 15 17 20 25 30 31
27 27 36 29 22 15 10 12 14 15 15 22 31 37 44 49 56 56 56 54 48 42 38 33 34 38 40 42 39 31 26 23 20 16 13 11 10 10 10 13 18 21 25 31
31 31 36 26 19 19 13 8 4 10 11 14 23 30 35 39 44 49 55 59 62 61 57 50 46 38 32 32 32 34 35 32 28 26 25 24 22 20 19 19 19 20 20 20
40 34 38 36 27 19 17 10 1 9 8 9 15 22 27 33 38 43 48 53 58 62 65 65 61 56 52 47 40 35 33 32 30 29 28 29 29 29 29 25 25 28 31 30
Wind_Direction_850mb
239 255 268 265 265 258 231 246 243 309 252 274 320 298 297 178 142 158 150 159 165 163 160 161 161 160 159 154 149 154 157 158 151 157 173 187 165 167 164 156 162 159 191 298
278 259 254 265 251 244 242 238 253 267 274 273 277 309 161 153 155 176 153 164 168 166 163 165 165 165 161 160 164 168 177 167 157 176 159 155 169 177 165 160 161 181 177 16
268 308 328 260 230 224 221 207 199 239 273 304 305 298 304 138 183 174 174 170 171 171 170 169 169 167 165 164 175 187 189 170 177 164 156 169 151 150 162 166 174 180 188 12
287 313 251 254 17 215 211 211 214 243 273 272 259 268 216 161 182 186 191 178 176 174 174 173 170 168 164 170 180 192 184 171 175 165 166 171 174 179 178 174 182 184 208 299
239 245 302 291 38 18 312 262 221 244 269 228 208 171 257 93 163 189 199 195 181 177 172 169 168 166 174 182 190 188 172 175 172 170 169 173 179 189 183 187 196 199 224 265
201 262 277 13 330 350 317 271 85 301 285 233 188 178 227 1 152 213 209 209 192 183 179 176 173 172 177 184 184 175 177 165 160 180 175 173 186 193 190 193 208 213 224 253
214 239 270 265 294 313 186 219 319 312 297 232 159 203 237 97 173 290 214 212 200 189 186 182 179 179 187 191 187 182 177 163 167 171 173 179 189 192 194 206 215 217 217 232
206 236 243 5 309 209 330 310 304 3 67 112 100 83 76 26 331 273 211 204 201 193 196 188 185 188 192 192 184 186 174 169 182 174 182 183 192 185 188 203 214 220 221 218
298 287 306 288 266 284 325 287 11 17 99 112 92 89 99 232 343 228 200 204 199 197 200 192 192 192 191 188 180 190 182 185 185 179 187 196 203 184 191 204 221 211 203 197
255 319 302 323 10 47 45 32 26 48 70 95 83 88 99 71 72 168 194 195 199 199 198 193 195 193 192 186 182 194 191 192 195 190 182 179 177 188 209 214 200 194 189 193
300 305 331 352 10 32 57 55 54 53 59 77 74 71 76 45 52 96 187 190 197 195 195 193 193 192 188 188 191 198 197 197 200 195 189 174 181 185 171 130 83 135 187 197
300 289 278 355 37 42 52 61 57 51 49 75 74 74 72 63 65 80 137 170 190 191 193 192 192 190 190 194 195 199 200 201 201 198 197 186 173 186 174 153 126 125 134 164
290 25 55 62 64 47 48 54 62 54 55 67 66 69 64 59 58 74 106 144 175 191 193 195 192 190 194 197 204 205 208 207 205 204 204 194 183 194 191 181 198 212 164 153
18 27 21 35 43 65 50 60 64 51 44 50 54 61 65 61 58 63 70 88 105 163 184 195 192 193 201 207 215 216 216 217 217 212 213 209 205 200 191 194 215 206 178 169
37 49 65 57 50 49 54 46 55 54 44 40 38 43 54 58 57 58 63 68 88 119 145 166 181 196 208 212 219 223 223 224 227 224 223 222 217 210 211 211 214 209 192 190
43 33 43 52 55 62 58 57 58 51 46 42 41 37 48 52 57 69 71 64 73 82 96 127 161 190 209 218 219 224 228 230 234 234 231 227 224 223 221 224 223 223 222 214
32 36 59 60 55 46 55 60 59 53 42 43 42 47 68 72 63 71 71 73 71 72 79 86 78 108 182 217 224 223 228 232 234 236 236 236 234 231 227 230 232 233 236 236
78 78 73 72 60 69 68 61 53 48 43 47 53 60 64 76 71 64 69 67 85 86 79 78 61 76 82 141 213 224 228 231 234 239 241 239 239 239 239 236 240 245 247 250
94 77 51 41 58 80 77 72 60 49 43 49 54 56 60 67 75 65 59 57 53 70 48 43 77 54 49 61 77 173 219 228 234 239 243 243 242 243 243 244 243 244 247 250
113 107 88 70 53 46 54 65 59 55 50 60 65 67 67 67 69 72 66 59 42 21 9 0 358 325 310 349 26 63 85 131 214 237 239 243 246 247 248 250 252 254 253 255
133 145 114 87 82 70 60 55 50 57 53 50 54 57 58 64 64 66 70 65 48 39 30 357 318 290 298 284 278 303 349 59 124 150 202 240 246 249 251 254 257 258 260 261
164 157 139 115 95 83 64 53 48 57 54 53 52 56 58 61 62 58 54 57 51 48 50 45 24 357 301 256 263 279 292 269 273 247 214 200 198 208 249 257 257 259 262 263
169 171 150 131 116 106 93 62 54 52 54 53 54 52 54 54 53 51 52 52 55 55 54 49 44 39 31 35 225 244 239 242 278 287 271 260 261 266 263 274 283 287 274 268
166 172 164 153 149 125 84 71 55 59 55 53 53 55 57 58 59 57 57 58 58 53 54 52 51 52 50 52 55 53 38 326 308 316 298 276 267 266 276 294 291 296 296 300
188 176 179 177 180 160 116 95 64 64 60 58 55 54 54 55 57 57 57 58 59 58 60 61 53 50 51 49 47 47 48 46 40 30 24 16 5 350 313 301 297 303 305 306
201 198 194 191 207 180 160 143 42 68 57 56 57 53 55 57 59 59 60 59 59 58 57 55 52 53 55 52 48 47 45 41 36 33 28 23 20 14 9 350 339 327 323 324
203 195 191 189 187 188 185 187 131 57 54 55 56 63 60 60 62 63 61 57 56 57 57 57 55 53 53 53 51 47 46 44 38 29 16 8 3 357 356 348 327 335 335 330